カタログに戻る

CZ-6A DEB

運用中SSO
NORAD 54297·DEBRIS·🇨🇳 China

打ち上げ Nov 11, 2022 から Taiyuan Satellite Launch Center

Loading…

次のパス (今後24時間)

TLE

最新Source: Space-Track

元期: Sep 14, 2026, 12:10 UTC

1 54297U 22151AQ  26257.50755713  .00000685  00000-0  29853-3 0  9992
2 54297  98.7152 276.4842 0026958  96.4360 263.9892 14.26984598199129

AllMySatでCZ-6A DEBをリアルタイム追跡

Download on the App Store